Tracking 21045 objects as of 4-Aug-2020
HD Live streaming from Space Station
objects crossing your sky now

PALAPA B1

Track PALAPA B1 now!
PALAPA B1 is classified as:


NORAD ID: 14134
Int'l Code: 1983-059C
Perigee: 35,787.3 km
Apogee: 35,838.8 km
Inclination: 14.2 °
Period: 1,437.1 minutes
Semi major axis: 42184 km
RCS: 1.2604 m2 (large)
Launch date: June 18, 1983
Source: Indonesia (INDO)
Launch site: AIR FORCE EASTERN TEST RANGE (AFETR)
aabbcc
Your satellite tracking list
Your tracking list is empty




NASA's NSSDC Master Catalog

Two Line Element Set (TLE):
1 14134U 83059C   20217.07561781 -.00000048 +00000-0 +00000-0 0  9998
2 14134 014.1757 346.3890 0006100 054.5268 299.9134 01.00202885099315
Source of the keplerian elements: AFSPC